Regional Weather Roundup
Issued by NWS

Home | Current Version | Previous Version | Text Only | Print | Product List | Glossary Off
Versions: 1 2 3 4 5 6 7 8 9 10 11 12 13 14 15 16 17 18 19 20 21 22 23 24 25 26 27 28 29 30 31 32 33 34 35 36 37 38 39 40 41 42 43 44 45 46 47 48 49 50

986
ASUS45 KCYS 211110
RWRWY

WYOMING REGIONAL WEATHER ROUNDUP
NATIONAL WEATHER SERVICE CHEYENNE WY
400 AM MST TUE FEB 21 2017

NOTE:  "FAIR" INDICATES FEW OR NO CLOUDS BELOW 12,000 FEET
WITH NO SIGNIFICANT WEATHER AND/OR OBSTRUCTIONS TO VISIBILITY.

WYZ001-211200-
YELLOWSTONE NATIONAL PARK

CITY           SKY/WX    TMP DP  RH WIND       PRES   REMARKS
LK YELLOWSTONE   N/A     30  30 100 CALM      29.87S
W YELLOWSTONE  NOT AVBL

$$
WYZ002>013-054>058-071-098>099-211200-
NORTHERN WYOMING

CITY           SKY/WX    TMP DP  RH WIND       PRES   REMARKS
JACKSON        CLOUDY    37  34  87 S24G32    29.89S WCI  26
CODY           FAIR      40  33  76 SE10G16   29.78S WCI  33
GREYBULL       MOCLDY    44  32  62 S8        29.78F
WORLAND        FAIR      42  34  73 S15       29.77F
SHERIDAN       FAIR      49  28  44 SE9G24    29.73R
BUFFALO        FAIR      48  28  46 N7        29.76F
GILLETTE       FAIR      46  32  58 SW33G40   29.73F
HULETT         FAIR      48  32  53 S16G22    29.79F
NEWCASTLE      FAIR      46  30  53 SE7       29.88F

$$
WYZ014>020-022>026-101>103-211200-
CENTRAL WYOMING

CITY           SKY/WX    TMP DP  RH WIND       PRES   REMARKS
BIG PINEY      CLOUDY    36  32  85 SW20      29.99S WCI  25
PINEDALE       LGT RAIN  36  32  87 SW15      30.00S WCI  26
DUBOIS         MIX PCPN  32  32 100 NW16      29.86S WCI  21
LANDER         LGT RAIN  46  33  60 SW26G36   29.86F
RIVERTON       FAIR      42  32  67 SW21G31   29.87R
CASPER         FAIR      43  32  65 SW26G40   29.88F
DOUGLAS        FAIR      47  30  51 W12       29.88F

$$
WYZ021-027>030-104>119-211200-
SOUTHERN WYOMING

CITY           SKY/WX    TMP DP  RH WIND       PRES   REMARKS
EVANSTON       FAIR      38  31  76 SW29      30.03S WCI  26
KEMMERER         N/A     37  32  81 SW21G29   30.02F WCI  27
FORT BRIDGER   PTSUNNY   40  32  71 SW13      30.08R WCI  33
ROCK SPRINGS   FAIR      38  29  70 SW16      30.04S WCI  29
DIXON            N/A     42  31  67 S21G28    30.15F
RAWLINS        FAIR      39  30  70 SW26G40   30.05F WCI  28
SARATOGA       FAIR      39  30  70 SW20G31   30.11R WCI  30
LARAMIE        FAIR      37  25  61 SW10      30.05R WCI  30
CHEYENNE       FAIR      48  26  42 W32G44    30.00R
TORRINGTON     FAIR      34  20  56 E8        29.93R WCI  27
PINE BLUFFS    FAIR      27  19  74 S9        30.00S WCI  17

$$




USA.gov is the U.S. government's official web portal to all federal, state and local government web resources and services.